This is the latest recevied weather packets stored in our database for station/object KD7MPG-3. If no packets are shown the sender has not sent any weather packets the latest 1 day(s).
| Time | Temp. | Humidity | Pressure | Rain* | Wind** | Luminosity | Snow |
|---|---|---|---|---|---|---|---|
| 1778031075 | 20.56° C | 69% | 1023.8 hPa | 0 mm | 1.34 m/s, 46° | - | - |
| 1778030773 | 21.11° C | 69% | 1023.8 hPa | 0 mm | 1.34 m/s, 78° | - | - |
| 1778030473 | 21.11° C | 69% | 1023.8 hPa | 0 mm | 0.89 m/s, 136° | - | - |
| 1778030175 | 21.11° C | 70% | 1023.7 hPa | 0 mm | 1.34 m/s, 85° | - | - |
| 1778029873 | 20.56° C | 70% | 1023.7 hPa | 0 mm | 1.34 m/s, 70° | - | - |
| 1778029573 | 20.56° C | 70% | 1023.7 hPa | 0 mm | 1.34 m/s, 84° | - | - |
| 1778029268 | 21.11° C | 68% | 1023.7 hPa | 0 mm | 0.89 m/s, 72° | - | - |
| 1778028968 | 21.11° C | 68% | 1023.7 hPa | 0 mm | 0.89 m/s, 76° | - | - |
| 1778028667 | 21.11° C | 69% | 1023.8 hPa | 0 mm | 0.89 m/s, 46° | - | - |
| 1778028367 | 21.11° C | 69% | 1023.8 hPa | 0 mm | 1.34 m/s, 81° | - | - |
| 1778028067 | 21.11° C | 69% | 1023.8 hPa | 0 mm | 1.34 m/s, 82° | - | - |
| 1778027767 | 21.11° C | 67% | 1023.7 hPa | 0 mm | 0.89 m/s, 24° | - | - |
| 1778027463 | 21.11° C | 68% | 1023.9 hPa | 0 mm | 0.89 m/s, 48° | - | - |
| 1778027164 | 21.11° C | 67% | 1023.7 hPa | 0 mm | 0.89 m/s, 23° | - | - |
| 1778026862 | 21.11° C | 69% | 1023.8 hPa | 0 mm | 0.89 m/s, 50° | - | - |
| 1778026562 | 21.11° C | 70% | 1023.8 hPa | 0 mm | 1.34 m/s, 95° | - | - |
| 1778026261 | 20.56° C | 70% | 1023.8 hPa | 0 mm | 0.89 m/s, 49° | - | - |
| 1778025960 | 20.56° C | 71% | 1023.8 hPa | 0 mm | 0.89 m/s, 76° | - | - |
| 1778025659 | 20° C | 70% | 1023.8 hPa | 0 mm | 0.45 m/s, 342° | - | - |
| 1778025362 | 19.44° C | 72% | 1023.9 hPa | 0 mm | 0 m/s | - | - |
| 1778025058 | 19.44° C | 72% | 1024 hPa | 0 mm | 0.45 m/s, 33° | - | - |
| 1778024757 | 19.44° C | 71% | 1024 hPa | 0 mm | 0.89 m/s, 5° | - | - |
| 1778024455 | 20° C | 71% | 1024 hPa | 0 mm | 0.89 m/s, 22° | - | - |
| 1778024156 | 20° C | 70% | 1024.1 hPa | 0 mm | 0.89 m/s, 296° | - | - |
| 1778023853 | 20° C | 72% | 1024.2 hPa | 0 mm | 0.89 m/s, 71° | - | - |
* Rain latest hour (hover to see other rain measurements)
** Current wind speed in m/s (hover to see current wind gust speed)